Theta_e
347 346 346 348 350 350 350 349 349 351 352 351 349 349 348 348 348 348 353 352 351 354 356 354 355 354 353 355 358 355 355 351 351 349 346 353 350 346 340 336 336 337 335
347 346 346 348 350 352 353 353 352 352 347 350 349 349 349 348 348 351 353 353 352 353 354 356 356 351 356 356 357 356 355 350 352 347 345 340 349 347 344 339 336 338 335
346 346 347 348 350 351 354 356 355 355 352 349 349 351 352 349 350 349 350 355 351 353 355 358 358 357 356 354 358 357 358 352 351 347 343 337 338 333 345 343 339 333 335
345 346 348 349 349 350 353 356 358 356 356 349 349 349 346 345 345 346 351 351 352 352 354 358 358 357 359 355 356 358 353 353 348 340 338 344 340 335 333 338 343 339 334
345 345 347 349 348 349 351 355 358 359 356 352 346 350 344 344 344 346 350 350 348 350 353 356 357 358 357 359 357 355 351 354 349 339 335 334 334 337 332 331 330 335 336
348 345 345 347 348 348 350 353 358 360 355 355 344 341 348 345 345 347 349 351 351 352 357 356 356 358 359 358 357 354 355 347 351 338 337 333 331 328 327 327 327 329 330
349 348 345 345 347 347 349 350 356 358 355 356 350 340 333 338 346 350 348 350 349 350 359 349 357 355 358 359 353 354 355 351 345 321 335 327 324 322 322 322 323 324 327
349 350 348 346 346 347 348 349 353 358 355 348 346 346 339 342 344 345 348 349 349 350 356 355 355 355 357 358 353 355 355 348 345 323 313 326 323 323 323 323 323 323 324
350 350 350 349 347 346 347 349 351 357 358 348 346 346 346 340 346 342 343 350 351 351 351 355 355 355 357 357 355 356 352 350 346 334 316 324 323 323 323 323 324 325 325
349 350 351 351 350 348 346 348 351 355 359 358 350 346 346 345 336 343 346 348 349 353 358 356 355 356 358 359 356 358 351 354 345 336 317 313 315 322 322 324 325 326 326
346 348 350 351 351 350 349 348 349 352 358 359 358 354 348 347 346 336 332 343 350 353 356 356 356 356 357 359 358 354 351 354 349 340 320 309 308 309 325 328 327 327 326
344 346 348 350 352 352 351 350 350 351 356 357 357 354 349 350 348 345 340 334 347 352 354 355 356 356 355 358 356 355 352 352 349 342 320 309 310 322 320 327 326 326 326
349 345 344 348 351 352 352 352 352 351 354 358 356 351 348 347 348 347 347 346 337 343 351 354 356 357 355 357 358 356 351 351 352 342 322 309 312 314 317 323 325 326 326
358 354 351 350 351 352 353 353 353 354 354 357 359 358 358 350 347 348 348 348 346 342 342 352 355 355 355 358 359 354 351 350 352 344 322 308 314 315 320 325 327 326 326
355 359 360 361 358 355 355 355 355 355 355 356 359 359 359 360 358 356 351 351 349 348 344 349 351 354 353 356 359 353 352 350 352 346 319 313 309 312 315 323 318 322 326
349 351 353 358 359 361 360 359 358 358 357 358 360 360 360 361 359 360 361 360 359 353 352 348 347 351 351 355 356 356 353 350 352 345 328 309 308 311 313 314 317 318 320
347 348 348 350 355 357 358 360 361 360 359 359 359 360 360 361 361 361 360 361 360 360 355 351 349 349 354 357 357 358 354 351 352 347 325 319 312 310 312 316 322 320 319
342 344 346 346 348 352 353 354 357 360 361 361 361 360 360 361 362 361 361 361 360 356 360 356 350 349 354 358 358 355 356 351 351 349 323 324 315 310 316 326 325 322 319
340 340 342 345 348 349 347 348 354 360 359 361 362 362 361 362 363 363 363 362 361 355 361 360 357 353 357 357 359 354 355 351 352 348 329 322 310 309 311 324 325 325 323
337 339 341 344 347 344 344 347 354 362 359 358 360 362 363 363 363 362 361 362 362 360 361 362 361 360 359 360 358 355 353 350 351 348 334 319 311 309 310 322 325 326 325
337 340 342 343 342 342 349 351 348 357 358 360 363 362 362 362 361 362 362 363 362 361 358 356 360 360 358 356 358 354 352 348 350 349 341 327 312 309 310 313 325 325 320
336 338 342 342 343 342 348 349 348 350 351 353 357 361 363 361 362 361 362 364 362 363 359 360 357 360 359 357 355 353 356 348 350 350 344 329 314 309 310 312 311 315 324
335 335 338 340 341 342 341 343 348 351 355 356 359 358 359 359 359 360 360 361 362 362 361 359 360 357 357 357 354 353 357 355 351 349 344 336 317 309 310 311 310 319 324
333 333 335 338 338 340 342 344 343 345 350 351 352 352 355 358 355 358 355 356 355 357 356 358 358 356 357 358 358 354 357 357 352 349 343 333 320 310 312 312 311 319 323
333 332 334 334 335 337 339 342 342 341 347 346 347 347 348 346 347 348 351 348 350 350 349 348 350 354 354 355 354 349 352 353 353 350 345 333 322 312 313 321 319 322 320
331 331 331 332 334 334 336 341 343 341 342 347 347 343 348 348 348 345 340 339 339 345 347 348 347 350 350 351 355 352 349 352 354 352 346 337 329 321 321 323 323 322 319
Wind_Speed
20 20 19 18 16 15 15 14 13 12 10 7 7 6 6 4 4 3 2 3 3 5 6 8 9 10 11 10 12 13 13 10 11 11 8 1 2 4 5 5 4 4 4
21 22 22 20 18 17 16 15 14 13 11 8 8 8 6 4 5 4 3 3 3 5 6 8 10 13 9 5 13 13 11 10 10 13 10 7 3 2 2 3 3 5 3
23 24 24 22 20 19 18 17 16 14 12 12 9 8 7 7 3 5 3 4 4 4 5 7 9 12 12 12 11 11 10 10 11 12 8 7 10 11 3 3 2 5 4
22 25 26 25 23 20 18 17 17 17 14 14 11 11 9 8 6 6 5 4 4 3 4 5 9 10 10 14 10 10 9 11 11 9 9 6 6 6 9 6 7 5 6
23 26 27 26 24 22 20 18 18 18 17 14 15 12 10 8 7 6 8 2 4 2 1 5 8 9 10 12 12 10 10 8 8 9 7 7 6 6 10 12 11 8 3
24 23 25 25 25 23 22 20 19 19 18 17 14 16 13 12 10 9 7 4 4 3 3 4 6 9 10 10 9 9 9 10 10 6 8 7 8 8 10 12 12 11 8
25 24 24 26 27 26 24 22 21 20 20 19 17 16 15 13 13 11 8 7 6 3 6 4 5 5 9 11 11 8 9 10 9 8 6 7 6 7 9 10 13 13 11
26 26 26 26 28 28 27 24 23 22 21 20 19 17 16 14 12 12 11 8 7 6 7 3 3 4 8 8 10 7 8 11 12 10 8 5 7 8 9 10 12 14 12
25 26 27 27 27 29 30 28 25 23 22 22 21 20 18 16 13 14 12 11 10 7 11 4 4 3 7 8 8 6 9 11 11 11 11 6 7 7 8 8 10 10 13
23 27 27 28 28 27 28 27 26 24 23 23 22 20 19 18 19 17 18 13 11 10 8 7 5 6 6 6 7 7 9 9 6 5 11 6 6 7 9 9 9 9 10
17 22 28 28 29 28 26 27 27 26 24 24 24 22 21 20 18 20 19 18 14 14 11 10 8 8 7 10 7 8 9 9 9 8 9 9 8 7 7 9 8 9 10
12 17 24 28 27 28 27 27 26 27 26 26 28 26 23 21 20 19 19 19 18 16 13 11 11 10 10 7 13 7 10 9 6 8 8 7 7 9 9 7 11 12 10
4 13 16 21 23 26 26 26 27 27 26 25 26 29 26 26 24 21 20 19 20 18 15 13 12 12 11 8 12 8 12 8 7 7 6 7 7 7 7 9 10 9 9
9 6 4 5 14 18 21 23 24 26 25 26 25 27 28 29 27 25 24 22 20 20 19 16 15 14 11 8 13 11 12 8 8 7 5 5 4 6 7 9 10 11 12
12 11 9 4 4 8 13 17 20 21 24 26 24 25 26 25 26 25 24 23 22 20 20 18 16 15 12 9 15 12 12 9 9 7 4 2 4 4 5 4 9 10 12
7 8 12 3 0 2 6 12 15 18 19 21 22 22 22 23 26 23 21 20 20 21 20 19 17 14 13 14 19 17 14 9 9 7 5 3 2 2 4 6 10 14 13
6 4 3 2 5 0 4 8 10 15 18 19 19 20 22 22 23 23 23 22 20 20 20 19 17 16 13 17 15 16 16 11 9 9 5 3 1 1 3 6 12 13 16
9 8 6 4 3 3 7 15 10 12 15 16 17 18 18 19 19 23 25 24 21 22 19 18 17 16 13 17 17 16 18 14 10 10 5 9 7 2 2 3 4 6 12
10 11 9 6 5 5 5 4 5 10 14 15 14 15 15 16 17 19 22 23 22 23 19 16 15 16 16 18 20 16 18 16 12 10 8 10 7 3 2 4 2 3 9
8 9 9 7 6 5 5 4 3 3 9 11 12 13 14 15 15 17 20 23 22 21 17 16 15 15 18 20 21 17 16 17 13 12 11 10 8 6 4 4 2 3 3
9 8 8 7 9 3 4 5 3 9 14 10 7 12 14 15 17 16 18 18 20 20 21 19 18 18 20 20 20 19 17 17 13 12 11 12 9 7 5 4 4 4 4
9 11 9 9 9 2 2 3 5 1 6 11 9 10 11 11 11 16 15 16 17 17 20 17 17 15 20 21 19 21 20 20 12 11 10 12 9 8 8 5 3 4 9
10 13 13 9 9 9 4 1 2 6 8 8 7 9 14 9 16 15 18 16 15 15 13 15 15 18 19 21 20 22 25 24 15 14 12 11 10 10 10 5 4 7 8
10 11 11 13 11 12 10 7 2 6 7 9 4 6 7 8 13 12 12 15 13 14 14 16 16 17 18 20 22 26 28 26 22 19 16 14 12 10 10 8 6 5 2
7 9 11 12 11 10 8 9 6 2 1 5 5 8 7 9 11 12 10 11 12 19 21 22 24 19 16 16 22 20 30 29 26 22 20 18 17 17 13 10 8 5 5
7 7 10 10 12 12 9 6 5 5 1 0 2 5 7 10 10 13 14 18 26 28 25 24 20 20 17 18 23 22 24 29 27 24 23 21 19 16 14 12 10 10 9
Wind_Direction
184 183 182 179 177 174 173 178 178 186 183 197 188 192 193 198 226 254 324 356 348 351 340 354 348 348 338 346 350 352 355 1 349 342 336 243 47 49 20 7 357 8 11
181 185 187 186 187 186 184 184 189 191 191 195 198 207 213 217 224 227 286 289 328 336 338 347 353 345 353 2 2 345 358 355 351 358 340 338 218 312 1 336 356 347 355
184 187 189 193 192 193 194 193 191 199 197 186 206 215 216 223 243 246 285 168 313 321 327 344 352 3 359 353 354 351 358 358 2 6 12 349 347 331 286 315 295 338 274
191 189 193 196 197 196 199 200 198 197 204 203 203 214 212 217 224 221 240 263 273 276 331 345 352 359 14 348 357 350 13 5 359 1 355 6 338 346 331 299 285 318 348
192 192 196 199 200 196 197 202 205 205 199 221 198 220 215 219 220 220 239 228 253 233 250 340 353 357 10 345 355 7 18 11 4 355 351 338 325 298 318 314 314 305 283
191 195 196 198 202 200 199 200 204 209 210 214 218 210 211 209 206 221 219 218 219 278 232 343 354 355 3 346 355 9 6 9 359 0 354 343 335 326 324 319 314 319 305
192 192 193 197 200 202 203 202 204 209 210 214 222 228 221 218 215 208 215 210 223 240 247 329 349 353 355 345 351 357 9 352 354 359 359 342 342 344 336 334 327 322 306
194 194 197 196 201 204 205 206 207 210 210 214 221 228 226 222 221 230 205 227 225 248 259 292 325 339 344 330 339 348 347 346 347 350 1 13 350 351 349 344 340 337 336
201 198 199 199 201 204 206 208 207 210 212 215 220 225 229 217 220 220 238 225 227 234 271 250 284 313 325 325 328 327 338 343 352 351 352 23 345 346 350 348 347 342 334
201 201 202 202 204 204 205 207 208 210 210 212 218 224 227 229 221 218 216 220 225 240 240 257 271 285 297 293 324 326 334 342 338 340 342 14 346 359 353 356 353 350 336
210 211 204 205 207 204 203 205 206 209 209 210 215 218 225 227 231 235 233 229 227 228 239 243 255 267 276 296 302 311 308 333 327 340 343 349 2 8 3 5 7 357 356
271 220 209 203 206 206 206 205 206 209 210 214 211 224 228 227 230 236 239 238 233 235 235 235 243 255 271 277 297 291 299 320 325 328 339 354 351 43 353 19 9 356 10
285 255 227 207 198 209 206 206 207 209 211 212 214 222 230 234 235 239 239 242 245 239 232 238 239 249 264 263 278 270 292 306 303 316 335 347 1 13 5 14 26 9 7
7 16 43 173 189 203 206 205 209 210 210 213 215 219 224 232 235 236 241 241 245 246 241 228 235 250 260 259 261 274 285 292 301 303 332 355 2 17 16 9 25 11 20
24 25 45 75 125 206 206 205 212 214 213 214 214 222 223 225 231 234 236 239 243 245 244 235 236 244 251 256 253 280 278 285 295 302 326 318 348 14 48 48 29 34 25
20 360 18 40 52 209 208 219 223 223 215 219 221 223 226 224 229 231 232 233 235 242 242 242 236 235 245 253 259 277 279 272 280 279 282 274 289 9 28 30 37 35 43
353 1 321 328 150 103 239 237 225 226 223 224 224 226 227 227 227 229 228 229 232 237 244 238 234 231 232 250 256 265 268 265 269 266 266 139 182 318 36 42 39 31 38
332 332 325 311 278 295 265 221 213 233 226 226 225 227 227 229 229 228 227 228 228 240 237 240 232 229 228 248 256 260 250 258 259 258 226 193 261 235 83 110 73 45 48
326 328 328 325 290 288 304 302 279 235 227 220 223 224 223 223 226 227 230 228 229 238 234 230 229 227 227 235 249 250 242 251 251 249 226 223 236 229 185 137 119 53 358
338 335 343 338 315 311 332 341 298 192 216 219 224 221 217 220 223 227 230 229 228 232 231 229 229 230 232 237 245 238 226 245 239 235 230 223 233 218 199 138 111 41 54
350 348 348 346 333 344 44 16 315 204 190 182 187 209 214 214 214 218 229 231 231 227 238 230 232 232 235 240 244 234 209 239 228 235 233 227 228 214 203 157 151 196 96
3 7 10 14 15 15 108 11 326 264 198 215 212 215 216 210 216 215 221 225 227 232 230 236 230 238 240 244 241 233 209 232 236 241 227 222 216 208 202 187 151 99 90
5 4 6 9 23 21 360 266 78 124 123 112 179 200 211 206 213 206 213 218 229 225 236 230 234 228 236 247 239 227 219 228 229 228 221 223 214 209 207 196 164 119 72
8 359 8 15 15 31 26 12 258 192 174 150 149 154 148 179 221 233 232 225 228 229 227 229 228 233 233 245 247 225 222 219 217 217 211 210 212 214 203 207 202 140 166
350 9 5 357 7 6 14 34 41 181 168 250 250 232 212 184 183 173 198 215 240 250 235 242 244 231 232 244 264 246 227 224 217 216 208 206 203 206 206 213 210 196 184
335 354 6 2 359 353 352 11 60 100 209 162 327 351 220 237 258 253 245 246 261 261 252 255 262 256 235 234 247 262 246 230 222 221 214 209 207 198 198 203 207 196 186